Tracking 29493 objects as of 8-Sep-2024
HD Live streaming from Space Station
objects crossing your sky now

FENGYUN 1C DEB

Track FENGYUN 1C DEB now!
10-day predictions


NORAD ID: 30679
Int'l Code: 1999-025AQM
Perigee: 848.7 km
Apogee: 1,103.5 km
Inclination: 99.4 °
Period: 104.5 minutes
Semi major axis: 7347 km
RCS: 0.0204 m2 (small)
Launch date: May 10, 1999
Source: People's Republic of China (PRC)
Launch site: Taiyaun Space Center, China (TSC)

Note: This is SATELLITE DEBRIS
Your satellite tracking list
Your tracking list is empty




NASA's NSSDC Master Catalog

Two Line Element Set (TLE):
1 30679U 99025AQM 24248.95685394  .00001961  00000-0  17695-2 0  9996
2 30679  99.4339 297.8489 0173384 220.4756 264.7928 13.78572772881265
Source of the keplerian elements: AFSPC